Zurück zum Katalog

SL-14 R/B

AktivLEO
NORAD 10096·ROCKET BODY·🇷🇺 Russia

Gestartet Jun 24, 1977 von Plesetsk Cosmodrome

Loading…

Nächste Überflüge (nächste 24 Stunden)

TLE

AktuellSource: Space-Track

Epoche: Sep 14, 2026, 14:08 UTC

1 10096U 77055B   26257.58927668  .00000320  00000-0  33041-4 0  9993
2 10096  75.8313 112.9641 0041115 233.2716 126.4698 14.92212809664746

Verfolge SL-14 R/B in Echtzeit mit AllMySat

Download on the App Store